Weather WX

World > North America > United States > Oregon

Garibaldi, Oregon Regional Weather

Lat: 45.56N, Lon: 123.91W
Wx Zone: ORZ001
Feedback

Garibaldi, OR Regional Weather

Expires:201906201900;;796948
ASUS46 KPQR 201810
RWROR 

OREGON REGIONAL WEATHER ROUNDUP
NATIONAL WEATHER SERVICE PORTLAND OR
1100 AM PDT THU JUN 20 2019

NOTE: "FAIR" INDICATES FEW OR NO CLOUDS BELOW 12,000 FEET WITH
NO SIGNIFICANT WEATHER AND/OR OBSTRUCTIONS TO VISIBILITY.


ORZ001>013-201900-
NORTHWEST OREGON

  
CITY           SKY/WX    TMP DP  RH WIND       PRES   REMARKS
ASTORIA        CLOUDY    59  48  67 W9        30.16S                  
6HR MIN TEMP:  51; 6HR MAX TEMP:  60; 6HR PCP:  0.04;                

TILLAMOOK      CLOUDY    59  52  77 NW10G16   30.20S                  
NEWPORT        CLOUDY    55  50  82 CALM      30.25R                  
PORTLAND       LGT RAIN  56  50  80 W6        30.17S                  
6HR MIN TEMP:  54; 6HR MAX TEMP:  60; 6HR PCP:  0.04;                

VANCOUVER WA   LGT RAIN  55  50  83 CALM      30.16F                  
6HR MIN TEMP:  53; 6HR MAX TEMP:  58; 6HR PCP:  0.06;                

SCAPPOOSE      MOSUNNY   62  47  57 W10       30.14F                  
6HR MIN TEMP:  52; 6HR MAX TEMP:  62; 6HR PCP: TRACE;                

HILLSBORO      PTSUNNY   59  45  59 W8        30.16S                  
6HR MIN TEMP:  50; 6HR MAX TEMP:  60; 6HR PCP: TRACE;                

AURORA         CLOUDY    60  43  53 VRB5      30.18S                  
6HR MIN TEMP:  52; 6HR MAX TEMP:  60;                                

MCMINNVILLE    CLOUDY    60  46  59 SW9       30.17S                  
6HR MIN TEMP:  49; 6HR MAX TEMP:  61;                                

SALEM          PTSUNNY   60  43  53 W8        30.17S                  
6HR MIN TEMP:  53; 6HR MAX TEMP:  62; 6HR PCP: TRACE;                

CORVALLIS      CLOUDY    59  45  59 VRB5      30.20S                  
EUGENE         PTSUNNY   62  44  51 NE6       30.20S                  
6HR MIN TEMP:  50; 6HR MAX TEMP:  62;                                

$$


SKY/WX - Weather  TMP - Temperature  DP - Dew Point  RH - Relative Humidity
WIND - Wind Direction/Speed PRES - Barometric Pressure VSB - Visibility
WCI - Wind Chill Index E13G22 Wind - East Wind 13 mph/Gusts of 22 mph